GW1187 Weather Reports


Display with metric or nautical units.
time (UTC)temp
F
wind
direction
speed
MPH
gust
MPH
rain 1hr
in
rain 24hr
in
rain mn
in
humidity
%
barometer
mb
20260504014559 36 0 0.0 0.0 0.00 0.00 0.00 78 1009.1
20260504013055 37 0 0.0 0.0 0.00 0.00 0.00 75 1009.0
20260504011541 37 0 0.0 0.0 0.00 0.00 0.00 73 1008.9
20260504010044 38 0 0.0 0.0 0.00 0.00 0.00 70 1008.6
20260504004608 40 0 0.0 0.0 0.00 0.00 0.00 68 1008.2
20260504003051 41 0 0.0 0.0 0.00 0.00 0.00 61 1008.2
20260504001617 42 0 0.0 0.0 0.00 0.00 0.00 58 1008.0
20260504000048 44 0 0.0 0.0 0.00 0.00 0.00 53 1007.8
20260503234543 46 115 0.0 3.0 0.00 0.00 0.00 50 1007.8
20260503233102 47 51 0.0 2.0 0.00 0.00 0.00 45 1007.6
20260503231541 48 27 1.0 3.0 0.00 0.00 0.00 44 1007.5
20260503230106 49 162 2.0 10.0 0.00 0.00 0.00 43 1007.5
20260503224546 49 127 2.0 5.0 0.00 0.01 0.00 44 1007.4
20260503223045 48 207 1.0 6.0 0.00 0.01 0.00 44 1007.3
20260503221542 48 181 3.0 9.0 0.00 0.01 0.00 45 1007.3
20260503220048 48 135 2.0 8.0 0.00 0.01 0.00 43 1007.2
20260503214540 48 150 2.0 8.0 0.00 0.05 0.00 42 1007.1
20260503213047 49 48 4.0 10.0 0.00 0.05 0.00 41 1007.1
20260503211548 49 170 2.0 12.0 0.00 0.05 0.00 41 1006.9
20260503210045 50 77 2.0 8.0 0.00 0.05 0.00 41 1006.4
20260503204545 49 167 4.0 16.0 0.00 0.08 0.00 40 1006.5
20260503203101 50 171 3.0 15.0 0.00 0.08 0.00 40 1006.6
20260503201541 50 177 3.0 9.0 0.00 0.08 0.00 39 1006.5
20260503200049 50 45 4.0 11.0 0.00 0.08 0.00 39 1006.4
20260503194547 49 136 5.0 13.0 0.00 0.10 0.00 42 1006.4
20260503193045 49 236 3.0 14.0 0.00 0.10 0.00 43 1006.4
20260503191547 50 160 4.0 9.0 0.00 0.10 0.00 42 1006.2
20260503190044 49 196 3.0 13.0 0.00 0.10 0.00 38 1006.3
20260503184548 49 117 3.0 11.0 0.00 0.10 0.00 39 1006.2
20260503183047 50 111 3.0 9.0 0.00 0.10 0.00 42 1006.4
20260503181544 50 157 3.0 12.0 0.00 0.10 0.00 42 1006.1
20260503180053 50 170 3.0 9.0 0.00 0.10 0.00 42 1006.2
20260503174546 53 354 3.0 17.0 0.00 0.10 0.00 42 1006.0
20260503173041 50 178 4.0 13.0 0.00 0.10 0.00 41 1005.9
20260503171540 50 75 4.0 15.0 0.00 0.10 0.00 44 1005.9
20260503081550 36 0 0.0 0.0 0.00 0.24 0.00 95 1008.1
20260503071546 37 0 0.0 0.0 0.00 0.25 0.00 95 1008.5
20260503060110 37 0 0.0 0.0 0.00 0.25 0.00 95 1009.2
20260503054600 38 0 0.0 0.0 0.00 0.25 0.00 95 1009.3
20260503053044 38 0 0.0 0.0 0.00 0.25 0.00 95 1009.5
20260503051542 38 0 0.0 0.0 0.00 0.25 0.00 95 1009.5
20260503050040 38 0 0.0 0.0 0.00 0.25 0.00 95 1009.9
20260503044541 38 0 0.0 0.0 0.00 0.25 0.00 95 1009.9
20260503043049 39 0 0.0 0.0 0.00 0.25 0.00 94 1010.2
20260503041543 39 0 0.0 0.0 0.00 0.25 0.00 94 1010.5
20260503040042 40 0 0.0 0.0 0.00 0.25 0.00 94 1010.6
20260503034541 41 0 0.0 0.0 0.00 0.25 0.25 95 1010.6
20260503033048 41 0 0.0 0.0 0.00 0.25 0.25 94 1010.4
20260503031547 41 0 0.0 0.0 0.00 0.25 0.25 95 1010.5
20260503030048 41 0 0.0 0.0 0.00 0.25 0.25 94 1010.6
20260503024544 42 0 0.0 0.0 0.00 0.25 0.25 94 1010.7
20260503023050 42 0 0.0 0.0 0.00 0.25 0.25 94 1010.6
20260503021548 43 0 0.0 0.0 0.00 0.25 0.25 94 1010.7
20260503020048 43 0 0.0 0.0 0.00 0.25 0.25 95 1010.9